Regional Weather Roundup
Issued by NWS Cleveland, OH

Home | Current Version | Previous Version | Graphics & Text | Print | Product List | Glossary On
Versions: 1 2 3 4 5 6 7 8 9 10 11 12 13 14 15 16 17 18 19 20 21 22 23 24 25 26 27 28 29 30 31 32 33 34 35 36 37 38 39 40 41 42 43 44 45 46 47 48 49 50
000
ASUS41 KCLE 062010
RWRCLE
OHIO REGIONAL WEATHER ROUNDUP
NATIONAL WEATHER SERVICE WILMINGTON, OH
300 PM EST FRI MAR 06 2015

NOTE: "FAIR" INDICATES FEW OR NO CLOUDS BELOW 12,000 FEET WITH NO
SIGNIFICANT WEATHER AND/OR OBSTRUCTIONS TO VISIBILITY.

OHZ001>008-015>018-024>027-034-035-043-044-062100-
   NORTHWEST OHIO

CITY           SKY/WX    TMP DP  RH WIND       PRES   REMARKS
DEFIANCE       SUNNY     22   9  57 SW17      30.36F WCI   8
FINDLAY        SUNNY     23  11  60 SW16      30.38F WCI  10
TOLEDO EXPRESS SUNNY     21   8  57 S14       30.36F WCI   8
TOLEDO EXEC    SUNNY     21   9  59 SW20      30.39F WCI   6
LIMA           SUNNY     24  10  55 SW16      30.37F WCI  11
$$

OHZ009>014-019>023-028>033-038-089-062100-
   NORTHEAST OHIO

CITY           SKY/WX    TMP DP  RH WIND       PRES   REMARKS
CLE-HOPKINS    PTSUNNY   23   7  50 SW16      30.41F WCI  10
CLE-LAKEFRONT  PTSUNNY   24   8  50 S15       30.38F WCI  11
CUY CO. ARPT   PTSUNNY   27  10  50 SW15      30.39F WCI  15
LORAIN-ELYRIA  MOSUNNY   21   7  54 W18       30.39F WCI   6
ASHTABULA      MOSUNNY   23   3  42 SW13      30.37F WCI  11
AKRON-CANTON   PTSUNNY   21   6  52 SW9       30.38F WCI  11
WOOSTER        MOSUNNY   21   7  54 S10       30.37  WCI  10
MANSFIELD      MOSUNNY   22   8  55 S14       30.36F WCI   9
YOUNGSTOWN     PTSUNNY   21   4  47 SW8       30.36F WCI  11
$$

OHZ042-051>053-060>062-070>072-077>081-062100-
  SOUTHWEST OHIO

CITY           SKY/WX    TMP DP  RH WIND       PRES   REMARKS
CINC-COVINGTON SUNNY     25  10  53 S13       30.44F WCI  14
CINC-LUNKEN    SUNNY     25  11  55 SW9       30.48F WCI  15
HAMILTON       SUNNY     29  10  45 SW8       30.45F WCI  21
DAYTON         MOSUNNY   26  10  50 SW13G21   30.40  WCI  15
WRIGHT-PAT AFB MOSUNNY   27  10  49 SW13      30.41  WCI  16
DAYTON GENERAL SUNNY     25   9  50 S13       30.41F WCI  14
WILMINGTON     SUNNY     21   6  52 SW12      30.41F WCI   9
$$

OHZ036-037-039>041-045>050-054>059-063>069-073>076-082>088-062100-
  CENTRAL AND SOUTHEAST OHIO

CITY           SKY/WX    TMP DP  RH WIND       PRES   REMARKS
COLUMBUS       PTSUNNY   21   6  52 S12       30.44F WCI   9
OSU AIRPORT    FAIR      22   6  50 S9        30.41F WCI  12
BOLTON FIELD   SUNNY     23   9  54 S9        30.43F WCI  13
RICKENBACK AFB SUNNY     22   7  54 SW8       30.44F WCI  12
NEWARK         SUNNY     21   4  47 SW10      30.42F WCI  10
MARION         SUNNY     21   9  59 S14       30.40F WCI   8
LANCASTER      SUNNY     21   6  52 SW8       30.44F WCI  11
ZANESVILLE     SUNNY     22   6  50 S3        30.43F
NEW PHILLY     MOSUNNY   25   4  40 W9        30.42F WCI  15
$$



USA.gov is the U.S. government's official web portal to all federal, state and local government web resources and services.